• In Deutschland
  • Länderverzeichnis
  • Für 7 Tage
  • Wassertemperatur
  • Satellitenkarten
  • Wetterkarte
  • Widgets
  • user-avatar
    Anmelden

    Stündliche Wetter Rottach-Egern

    Heute, 24 Januar, Mittwoch

    Zeit Temperatur Niederschläge Wind Luftdruck Luftfeuchtigkeit
    00:00 -6°C° 0 mm 2 m/S 651 mmHg 76%
    01:00 -5°C° 0 mm 2 m/S 652 mmHg 71%
    02:00 -5°C° 0 mm 2 m/S 652 mmHg 71%
    03:00 -5°C° 0 mm 2 m/S 652 mmHg 70%
    04:00 -5°C° 0 mm 2 m/S 651 mmHg 70%
    05:00 -5°C° 0 mm 2 m/S 651 mmHg 69%
    06:00 -5°C° 0 mm 2 m/S 651 mmHg 68%
    07:00 -4°C° 0 mm 2 m/S 651 mmHg 67%
    08:00 -3°C° 0 mm 2 m/S 652 mmHg 69%
    09:00 -2°C° 0 mm 2 m/S 652 mmHg 71%
    10:00 +1°C° 0 mm 2 m/S 652 mmHg 72%
    11:00 +3°C° 0 mm 1 m/S 652 mmHg 76%
    12:00 +4°C° 0 mm 1 m/S 652 mmHg 79%
    13:00 +5°C° 0 mm 1 m/S 652 mmHg 83%
    14:00 +5°C° 0 mm 1 m/S 652 mmHg 83%
    15:00 +4°C° 0 mm 1 m/S 651 mmHg 83%
    16:00 +4°C° 0 mm 1 m/S 651 mmHg 83%
    17:00 +2°C° 0 mm 1 m/S 650 mmHg 81%
    18:00 -1°C° 0 mm 2 m/S 650 mmHg 79%
    19:00 -2°C° 0 mm 2 m/S 650 mmHg 77%
    20:00 -2°C° 0 mm 2 m/S 650 mmHg 75%
    21:00 -3°C° 0 mm 2 m/S 650 mmHg 74%
    22:00 -3°C° 0 mm 2 m/S 650 mmHg 72%
    23:00 -3°C° 0 mm 2 m/S 649 mmHg 71%

    Morgen, 25 Januar, Donnerstag

    Zeit Temperatur Niederschläge Wind Luftdruck Luftfeuchtigkeit
    00:00 -3°C° 0 mm 2 m/S 649 mmHg 71%
    01:00 -3°C° 0 mm 2 m/S 649 mmHg 70%
    02:00 -3°C° 0 mm 2 m/S 649 mmHg 70%
    03:00 -3°C° 0 mm 2 m/S 649 mmHg 70%
    04:00 -3°C° 0 mm 2 m/S 649 mmHg 70%
    05:00 -3°C° 0 mm 2 m/S 648 mmHg 69%
    06:00 -3°C° 0 mm 2 m/S 648 mmHg 69%
    07:00 -3°C° 0 mm 2 m/S 648 mmHg 69%
    08:00 -2°C° 0 mm 2 m/S 648 mmHg 71%
    09:00 -1°C° 0 mm 2 m/S 648 mmHg 72%
    10:00 +1°C° 0 mm 2 m/S 648 mmHg 73%
    11:00 +2°C° 0 mm 2 m/S 648 mmHg 75%
    12:00 +4°C° 0 mm 1 m/S 647 mmHg 77%
    13:00 +5°C° 0 mm 1 m/S 647 mmHg 78%
    14:00 +4°C° 0 mm 1 m/S 647 mmHg 80%
    15:00 +4°C° 0 mm 1 m/S 646 mmHg 83%
    16:00 +3°C° 0 mm 1 m/S 646 mmHg 85%
    17:00 +2°C° 0 mm 1 m/S 645 mmHg 85%
    18:00 -1°C° 0 mm 2 m/S 645 mmHg 85%
    19:00 -2°C° 0 mm 2 m/S 645 mmHg 85%
    20:00 -2°C° 0 mm 2 m/S 645 mmHg 85%
    21:00 -2°C° 0 mm 2 m/S 645 mmHg 85%
    22:00 -2°C° 0 mm 2 m/S 645 mmHg 85%
    23:00 -2°C° 0 mm 2 m/S 645 mmHg 84%

    übermorgen, 26 Januar, Freitag

    Zeit Temperatur Niederschläge Wind Luftdruck Luftfeuchtigkeit
    00:00 -3°C° 0 mm 2 m/S 644 mmHg 84%
    01:00 -3°C° 0 mm 2 m/S 644 mmHg 84%
    02:00 -3°C° 0 mm 2 m/S 644 mmHg 84%
    03:00 -2°C° 0 mm 2 m/S 644 mmHg 83%
    04:00 -2°C° 0 mm 2 m/S 643 mmHg 83%
    05:00 -2°C° 0 mm 2 m/S 643 mmHg 84%
    06:00 -3°C° 0 mm 2 m/S 643 mmHg 84%
    07:00 -3°C° 0 mm 2 m/S 643 mmHg 84%
    08:00 0°C° 0 mm 1 m/S 644 mmHg 85%
    09:00 0°C° 0 mm 1 m/S 644 mmHg 86%
    10:00 +1°C° 0 mm 1 m/S 644 mmHg 87%
    11:00 +2°C° 0 mm 1 m/S 644 mmHg 87%
    12:00 +2°C° 0 mm 1 m/S 644 mmHg 87%
    13:00 +3°C° 0 mm 1 m/S 645 mmHg 87%
    14:00 +3°C° 0 mm 1 m/S 645 mmHg 89%
    15:00 +2°C° 0 mm 1 m/S 645 mmHg 91%
    16:00 +2°C° 0 mm 1 m/S 645 mmHg 93%
    17:00 +1°C° 0 mm 1 m/S 645 mmHg 94%
    18:00 0°C° 0 mm 1 m/S 645 mmHg 95%
    19:00 -1°C° 0 mm 1 m/S 645 mmHg 96%
    20:00 -1°C° 0 mm 1 m/S 646 mmHg 96%
    21:00 -1°C° 0 mm 1 m/S 646 mmHg 96%
    22:00 -1°C° 0 mm 1 m/S 646 mmHg 96%
    23:00 -1°C° 0,1 mm 1 m/S 647 mmHg 96%

    27 Januar, Samstag

    Zeit Temperatur Niederschläge Wind Luftdruck Luftfeuchtigkeit
    00:00 -1°C° 0,1 mm 1 m/S 647 mmHg 96%
    01:00 -1°C° 0,1 mm 1 m/S 647 mmHg 96%
    02:00 -1°C° 0,1 mm 1 m/S 648 mmHg 96%
    03:00 -2°C° 0,1 mm 0 m/S 648 mmHg 96%
    04:00 -2°C° 0,1 mm 0 m/S 648 mmHg 96%
    05:00 -2°C° 0,1 mm 0 m/S 648 mmHg 96%
    06:00 -2°C° 0,1 mm 0 m/S 649 mmHg 96%
    07:00 -2°C° 0,1 mm 0 m/S 649 mmHg 96%
    08:00 -2°C° 0,1 mm 0 m/S 650 mmHg 95%
    09:00 -1°C° 0,1 mm 1 m/S 651 mmHg 94%
    10:00 0°C° 0,1 mm 1 m/S 651 mmHg 93%
    11:00 0°C° 0 mm 1 m/S 652 mmHg 93%
    12:00 +1°C° 0 mm 1 m/S 652 mmHg 92%
    13:00 +1°C° 0 mm 1 m/S 652 mmHg 91%
    14:00 +1°C° 0 mm 1 m/S 653 mmHg 91%
    15:00 +1°C° 0 mm 1 m/S 653 mmHg 92%
    16:00 +1°C° 0 mm 1 m/S 653 mmHg 92%
    17:00 0°C° 0 mm 1 m/S 653 mmHg 93%
    18:00 -1°C° 0 mm 0 m/S 654 mmHg 94%
    19:00 -2°C° 0 mm 0 m/S 654 mmHg 94%
    20:00 -2°C° 0 mm 0 m/S 655 mmHg 94%
    21:00 -3°C° 0 mm 0 m/S 655 mmHg 94%
    22:00 -3°C° 0 mm 0 m/S 655 mmHg 94%
    23:00 -3°C° 0 mm 0 m/S 655 mmHg 94%

    28 Januar, Sonntag

    Zeit Temperatur Niederschläge Wind Luftdruck Luftfeuchtigkeit
    00:00 -4°C° 0 mm 0 m/S 655 mmHg 93%
    01:00 -4°C° 0 mm 0 m/S 655 mmHg 93%
    02:00 -4°C° 0 mm 0 m/S 655 mmHg 91%
    03:00 -3°C° 0 mm 1 m/S 655 mmHg 90%
    04:00 -3°C° 0 mm 1 m/S 655 mmHg 89%
    05:00 -3°C° 0 mm 1 m/S 656 mmHg 88%
    06:00 -3°C° 0 mm 1 m/S 656 mmHg 87%
    07:00 -3°C° 0 mm 1 m/S 656 mmHg 86%
    08:00 -2°C° 0 mm 1 m/S 657 mmHg 84%
    09:00 -1°C° 0 mm 1 m/S 657 mmHg 82%
    10:00 0°C° 0 mm 1 m/S 658 mmHg 80%
    11:00 +1°C° 0 mm 1 m/S 658 mmHg 79%
    12:00 +2°C° 0 mm 1 m/S 658 mmHg 78%
    13:00 +3°C° 0 mm 1 m/S 658 mmHg 77%
    14:00 +3°C° 0 mm 1 m/S 658 mmHg 80%
    15:00 +2°C° 0 mm 1 m/S 657 mmHg 83%
    16:00 +1°C° 0 mm 0 m/S 657 mmHg 86%
    17:00 +1°C° 0 mm 1 m/S 657 mmHg 87%
    18:00 0°C° 0 mm 1 m/S 657 mmHg 87%
    19:00 -1°C° 0 mm 1 m/S 657 mmHg 88%
    20:00 -2°C° 0 mm 1 m/S 658 mmHg 87%
    21:00 -2°C° 0 mm 1 m/S 658 mmHg 85%
    22:00 -4°C° 0 mm 2 m/S 658 mmHg 84%
    23:00 -2°C° 0 mm 1 m/S 658 mmHg 82%

    29 Januar, Montag

    Zeit Temperatur Niederschläge Wind Luftdruck Luftfeuchtigkeit
    00:00 -2°C° 0 mm 1 m/S 658 mmHg 81%
    01:00 -2°C° 0 mm 1 m/S 658 mmHg 79%
    02:00 -2°C° 0 mm 1 m/S 658 mmHg 77%
    03:00 -2°C° 0 mm 1 m/S 657 mmHg 75%
    04:00 -2°C° 0 mm 1 m/S 657 mmHg 73%
    05:00 -2°C° 0 mm 1 m/S 657 mmHg 72%
    06:00 -2°C° 0 mm 1 m/S 657 mmHg 70%
    07:00 -2°C° 0 mm 1 m/S 657 mmHg 69%
    08:00 -1°C° 0 mm 1 m/S 657 mmHg 68%
    09:00 0°C° 0 mm 1 m/S 658 mmHg 67%
    10:00 +1°C° 0 mm 1 m/S 658 mmHg 66%
    11:00 +2°C° 0 mm 1 m/S 658 mmHg 66%
    12:00 +2°C° 0 mm 0 m/S 658 mmHg 66%
    13:00 +3°C° 0 mm 0 m/S 658 mmHg 66%
    14:00 +3°C° 0 mm 0 m/S 657 mmHg 70%
    15:00 +2°C° 0 mm 0 m/S 657 mmHg 74%
    16:00 +2°C° 0 mm 0 m/S 656 mmHg 77%
    17:00 +1°C° 0 mm 0 m/S 656 mmHg 79%
    18:00 0°C° 0 mm 0 m/S 656 mmHg 80%
    19:00 -1°C° 0 mm 1 m/S 656 mmHg 82%
    20:00 -1°C° 0 mm 1 m/S 655 mmHg 82%
    21:00 -1°C° 0 mm 1 m/S 655 mmHg 82%
    22:00 -1°C° 0 mm 1 m/S 655 mmHg 81%
    23:00 -1°C° 0 mm 1 m/S 655 mmHg 81%
    Mehr zeigen